STARLINK-32340, 61008

Orbit data source: Space-Track

STARLINK-32340, 61008 is a payload satellite owned by SpaceX/Seattle (US) in LEO that was launched on Thu, 05 Sep 2024 UTC via an FALCON 9 launch vehicle from the Air Force Eastern Test Range (AFETR). Payload-class satellites include a variety of spacecraft equipped with specific instruments for various scientific and technological missions. These include communications satellites like Starlink; space stations such as the ISS; scientific satellites like the Hubble; Earth observation satellites from companies like Planet Labs, Umbra, and HawkEye 360; GPS; miniature CubeSats for education and research; and military/defense satellites.

Loading next visibility...
Identifier
61008, 2024-158U
Orbit
LEO
Country
Flag of USUS
Related business
Manufacturer
SpaceX/Seattle
Mission
Operational Commercial Communications
Bus & Motor
STARLINK V2M, Unknown motor
Mass
730 kg wet, ~700 kg dry
Launch date (UTC)
2024-09-05 (1 year ago)
Launch vehicle
FALCON 9
Launch site
Air Force Eastern Test Range (AFETR)
Object type
Payload
Rocket body
Debris
Shape & HBR
Box + 2 Pan, 17.7 m
Radar Cross Section
33.884 m², Large (>1 m²)

Expand to show TLE details & history
Last TLE update: 16 hours ago

TLE from 16 hours ago
0 STARLINK-32340
1 61008U 24158U   26033.51879024  .00000979  00000-0  45195-4 0  9998
2 61008  53.1593 229.0200 0001278  88.6990 271.4157 15.30189872 80195
Epoch: 2026-02-02T12:27Z
TLE epoch observation values (Epoch: 2026-02-02T12:27:03.476Z)
Latitude
-0.00005°
Longitude
-90.45744°
Altitude
476.123 km
Speed
7.629 km/s
True Right ascension
15h 16m 04s
True Declination
0° 00' 00"
Sunlit
Object was in daylight at epoch
Visualization orbit readout
Latitude
Unknown
Longitude
Unknown
Altitude
Unknown
Speed
Unknown
Apparent Right ascension
Unknown
Apparent Declination
Unknown
Sunlit
N/A
Visualization observer readout
Local Sidereal Time
06:29:31
Azimuth
Unknown
Elevation
Unknown
Doppler factor
Unknown
Orbital elements
Apogee altitude
476.378 km
Perigee altitude
474.626 km
Semi-major axis
6,853.639 km
Eccentricity
0.00013
Inclination
53.1593°
RAAN
229.02°
Arg. of periapsis
88.699°
True anomaly
271.40106°
Mean anomaly
271.4157°
Eccentric anomaly
271.40838°
Mean motion
3.82526 °/min
Orbital period
94.11 mins
BSTAR
0.000045195
Loading maneuver chart data...
Computing Atmospheric mass density...
Loading historical data...
Loading historical data...
Loading historical data...
Loading historical data...
Loading historical data...
Loading historical data...
Loading historical data...

Documentation

Showing up to 5 results
|